This is the latest recevied weather packets stored in our database for station/object KD9ZDW. If no packets are shown the sender has not sent any weather packets the latest 10 day(s).
| Time | Temp. | Humidity | Pressure | Rain* | Wind** | Luminosity | Snow |
|---|---|---|---|---|---|---|---|
| 1777783668 | 0.56° C | 91% | 1019.5 hPa | 0 mm | - | 0 W/m² | - |
| 1777783365 | 0.56° C | 91% | 1019.5 hPa | 0 mm | - | 0 W/m² | - |
| 1777783062 | 0.56° C | 91% | 1019.5 hPa | 0 mm | - | 0 W/m² | - |
| 1777782759 | 0.56° C | 91% | 1019.5 hPa | 0 mm | - | 0 W/m² | - |
| 1777782455 | 0.56° C | 90% | 1019.6 hPa | 0 mm | - | 0 W/m² | - |
| 1777782152 | 0.56° C | 90% | 1019.6 hPa | 0 mm | - | 0 W/m² | - |
| 1777781848 | 0.56° C | 90% | 1019.6 hPa | 0 mm | - | 0 W/m² | - |
| 1777781546 | 1.11° C | 90% | 1019.6 hPa | 0 mm | - | 0 W/m² | - |
| 1777781244 | 1.11° C | 90% | 1019.7 hPa | 0 mm | - | 0 W/m² | - |
| 1777780941 | 1.11° C | 90% | 1019.4 hPa | 0 mm | - | 0 W/m² | - |
| 1777780637 | 1.11° C | 90% | 1019.5 hPa | 0 mm | - | 0 W/m² | - |
| 1777780335 | 1.11° C | 89% | 1019.6 hPa | 0 mm | - | 0 W/m² | - |
| 1777780032 | 1.11° C | 89% | 1019.6 hPa | 0 mm | - | 0 W/m² | - |
| 1777779729 | 1.67° C | 89% | 1019.5 hPa | 0 mm | - | 0 W/m² | - |
| 1777779426 | 1.11° C | 88% | 1019.4 hPa | 0 mm | - | 0 W/m² | - |
| 1777779124 | 1.11° C | 88% | 1019.6 hPa | 0 mm | - | 0 W/m² | - |
| 1777778822 | 1.67° C | 88% | 1019.5 hPa | 0 mm | - | 0 W/m² | - |
| 1777778520 | 1.67° C | 87% | 1019.7 hPa | 0 mm | - | 0 W/m² | - |
| 1777778217 | 1.67° C | 87% | 1019.8 hPa | 0 mm | - | 0 W/m² | - |
| 1777777915 | 1.67° C | 86% | 1019.5 hPa | 0 mm | - | 0 W/m² | - |
| 1777777611 | 2.22° C | 86% | 1019.5 hPa | 0 mm | - | 0 W/m² | - |
| 1777777308 | 1.67° C | 85% | 1019.7 hPa | 0 mm | - | 0 W/m² | - |
| 1777777004 | 1.67° C | 84% | 1019.7 hPa | 0 mm | - | 0 W/m² | - |
| 1777776703 | 1.67° C | 84% | 1019.5 hPa | 0 mm | - | 0 W/m² | - |
| 1777776398 | 2.22° C | 84% | 1019.6 hPa | 0 mm | - | 0 W/m² | - |
* Rain latest hour (hover to see other rain measurements)
** Current wind speed in m/s (hover to see current wind gust speed)